JMC1 LFPO-EGLL

Flight info

Callsign JMC1
Flight time 0h 43m
Altitude 24000
Route OPALE DCT KESAX DCT DIMAL DCT ALESO
Aircraft A320/M-SDE3FGHIRWY/LB1

Departure

Time 2026-05-04 09:32
Airport Paris-Orly Airport (LFPO)

Arrival

Time 2026-05-04 10:16
Airport London Heathrow Airport (EGLL)
Time Latitude Longitude Altitude Speed Heading
2026-05-04 09:18 48.73226 2.37766 293 ft 0 kts 344°
2026-05-04 09:18 48.73208 2.37775 297 ft 4 kts 331°
2026-05-04 09:18 48.73188 2.37800 297 ft 4 kts 296°
2026-05-04 09:19 48.73185 2.37829 294 ft 1 kts 254°
2026-05-04 09:19 48.73186 2.37836 294 ft 0 kts 254°
2026-05-04 09:22 48.73185 2.37832 294 ft 1 kts 254°
2026-05-04 09:22 48.73164 2.37806 295 ft 8 kts 190°
2026-05-04 09:23 48.73097 2.37829 293 ft 11 kts 165°
2026-05-04 09:23 48.73017 2.37860 296 ft 13 kts 169°
2026-05-04 09:23 48.72926 2.37825 295 ft 15 kts 198°
2026-05-04 09:23 48.72822 2.37773 294 ft 17 kts 201°
2026-05-04 09:25 48.72536 2.36386 291 ft 24 kts 253°
2026-05-04 09:25 48.72491 2.36148 291 ft 23 kts 253°
2026-05-04 09:26 48.72469 2.35901 291 ft 25 kts 280°
2026-05-04 09:26 48.72463 2.35681 293 ft 21 kts 251°
2026-05-04 09:26 48.72437 2.35537 293 ft 22 kts 254°
2026-05-04 09:26 48.72394 2.35302 292 ft 24 kts 254°
2026-05-04 09:27 48.72355 2.35092 295 ft 20 kts 254°
2026-05-04 09:27 48.72377 2.34810 296 ft 22 kts 295°
2026-05-04 09:27 48.72419 2.34662 296 ft 24 kts 291°
2026-05-04 09:27 48.72487 2.34426 294 ft 25 kts 294°
2026-05-04 09:28 48.72554 2.34198 295 ft 17 kts 293°
2026-05-04 09:28 48.72553 2.34040 294 ft 16 kts 249°
2026-05-04 09:28 48.72498 2.33878 297 ft 19 kts 242°
2026-05-04 09:28 48.72432 2.33696 293 ft 21 kts 242°
2026-05-04 09:29 48.72361 2.33492 297 ft 23 kts 242°
2026-05-04 09:29 48.72284 2.33275 295 ft 25 kts 242°
2026-05-04 09:29 48.72201 2.33040 293 ft 26 kts 242°
2026-05-04 09:29 48.72112 2.32790 295 ft 28 kts 242°
2026-05-04 09:30 48.72020 2.32527 295 ft 29 kts 241°
2026-05-04 09:30 48.71924 2.32258 292 ft 30 kts 242°
2026-05-04 09:30 48.71838 2.32013 293 ft 24 kts 242°
2026-05-04 09:30 48.71843 2.31777 291 ft 24 kts 310°
2026-05-04 09:31 48.71981 2.31730 292 ft 18 kts 18°
2026-05-04 09:31 48.72076 2.31911 292 ft 40 kts 62°
2026-05-04 09:31 48.72314 2.32583 295 ft 103 kts 61°
2026-05-04 09:31 48.72736 2.33772 294 ft 151 kts 62°
2026-05-04 09:32 48.73285 2.35324 503 ft 173 kts 62°
2026-05-04 09:32 48.73797 2.36924 1232 ft 164 kts 66°
2026-05-04 09:34 48.75807 2.52029 4604 ft 263 kts 99°
2026-05-04 09:34 48.75532 2.54792 5425 ft 267 kts 98°
2026-05-04 09:34 48.75071 2.57520 6257 ft 270 kts 120°
2026-05-04 09:34 48.73732 2.59480 7054 ft 272 kts 154°
2026-05-04 09:35 48.71880 2.59966 7877 ft 276 kts 187°
2026-05-04 09:35 48.70115 2.58847 8530 ft 285 kts 220°
2026-05-04 09:35 48.68976 2.56386 9282 ft 289 kts 250°
2026-05-04 09:35 48.68465 2.53427 10069 ft 293 kts 259°
2026-05-04 09:37 48.65920 2.28862 13702 ft 358 kts 265°
2026-05-04 09:37 48.66114 2.25111 14378 ft 359 kts 287°
2026-05-04 09:38 48.67174 2.21699 15033 ft 360 kts 299°
2026-05-04 09:38 48.68428 2.18386 15695 ft 364 kts 300°
2026-05-04 09:38 48.69724 2.15075 16333 ft 367 kts 300°
2026-05-04 09:38 48.71011 2.11780 16968 ft 368 kts 299°
2026-05-04 09:39 48.72302 2.08390 17530 ft 372 kts 298°
2026-05-04 09:39 48.73571 2.04935 18074 ft 377 kts 297°
2026-05-04 09:39 48.74841 2.01416 18589 ft 381 kts 297°
2026-05-04 09:39 48.76097 1.97899 19097 ft 385 kts 297°
2026-05-04 09:40 48.77383 1.94297 19592 ft 389 kts 296°
2026-05-04 09:40 48.78683 1.90657 20116 ft 393 kts 296°
2026-05-04 09:40 48.80079 1.87134 20651 ft 397 kts 306°
2026-05-04 09:40 48.82099 1.84232 21178 ft 404 kts 324°
2026-05-04 09:41 48.84646 1.82366 21703 ft 410 kts 341°
2026-05-04 09:42 49.04225 1.90831 24642 ft 440 kts 22°
2026-05-04 09:43 49.07081 1.92558 25052 ft 442 kts 21°
2026-05-04 09:43 49.09957 1.94263 25457 ft 444 kts 22°
2026-05-04 09:43 49.12848 1.96017 25717 ft 449 kts 23°
2026-05-04 09:43 49.15719 1.97830 26018 ft 453 kts 23°
2026-05-04 09:44 49.18632 1.99691 26404 ft 454 kts 23°
2026-05-04 09:44 49.21567 2.01558 26755 ft 457 kts 23°
2026-05-04 09:44 49.24514 2.03413 27099 ft 460 kts 23°
2026-05-04 09:46 49.45781 2.13043 28001 ft 456 kts 352°
2026-05-04 09:46 49.51881 2.10592 28006 ft 452 kts 336°
2026-05-04 09:47 49.57752 2.07199 28010 ft 452 kts 336°
2026-05-04 09:49 49.81347 1.93553 28008 ft 452 kts 336°
2026-05-04 09:51 49.99807 1.76413 28044 ft 442 kts 317°
2026-05-04 09:51 50.04598 1.70495 28030 ft 441 kts 317°
2026-05-04 09:52 50.09833 1.65396 28027 ft 447 kts 332°
2026-05-04 09:52 50.15452 1.61339 28028 ft 446 kts 332°
2026-05-04 09:53 50.21069 1.57277 28038 ft 446 kts 331°
2026-05-04 09:53 50.26716 1.53168 28038 ft 446 kts 331°
2026-05-04 09:54 50.32320 1.49076 28039 ft 446 kts 331°
2026-05-04 09:54 50.37957 1.44941 28037 ft 446 kts 331°
2026-05-04 09:55 50.43553 1.40835 28041 ft 446 kts 331°
2026-05-04 09:55 50.48994 1.36234 28066 ft 439 kts 319°
2026-05-04 09:56 50.53303 1.29807 27947 ft 418 kts 308°
2026-05-04 09:56 50.55256 1.26482 27576 ft 411 kts 308°
2026-05-04 09:56 50.57200 1.23178 27140 ft 407 kts 308°
2026-05-04 09:56 50.59139 1.19941 26706 ft 404 kts 309°
2026-05-04 09:57 50.61083 1.16827 26285 ft 402 kts 310°
2026-05-04 09:57 50.63067 1.13726 25869 ft 399 kts 311°
2026-05-04 09:57 50.65046 1.10665 25321 ft 395 kts 311°
2026-05-04 09:57 50.66992 1.07652 24814 ft 389 kts 311°
2026-05-04 09:58 50.68907 1.04664 24297 ft 385 kts 311°
2026-05-04 09:58 50.70769 1.01735 23776 ft 381 kts 311°
2026-05-04 09:58 50.72633 0.98781 23176 ft 377 kts 310°
2026-05-04 10:00 50.85175 0.78706 19401 ft 360 kts 312°
2026-05-04 10:00 50.86939 0.75879 19157 ft 359 kts 312°
2026-05-04 10:02 50.99040 0.56393 18007 ft 353 kts 312°
2026-05-04 10:04 51.10981 0.37335 15355 ft 338 kts 315°
2026-05-04 10:04 51.12689 0.34768 14663 ft 335 kts 315°
2026-05-04 10:04 51.14356 0.32256 14096 ft 328 kts 315°
2026-05-04 10:04 51.15963 0.29824 13861 ft 312 kts 314°
2026-05-04 10:05 51.17524 0.27446 13338 ft 306 kts 314°
2026-05-04 10:05 51.19055 0.25101 12753 ft 303 kts 314°
2026-05-04 10:05 51.20567 0.22779 12176 ft 300 kts 314°
2026-05-04 10:05 51.22068 0.20476 11605 ft 297 kts 314°
2026-05-04 10:06 51.23643 0.18324 10644 ft 308 kts 320°
2026-05-04 10:06 51.25342 0.16265 10193 ft 301 kts 321°
2026-05-04 10:06 51.26987 0.14294 9790 ft 291 kts 321°
2026-05-04 10:08 51.37692 0.06863 6352 ft 275 kts 341°
2026-05-04 10:08 51.39488 0.05944 5784 ft 272 kts 341°
2026-05-04 10:08 51.41277 0.05009 5224 ft 269 kts 341°
2026-05-04 10:08 51.43047 0.04069 4628 ft 266 kts 341°
2026-05-04 10:09 51.44774 0.02993 4048 ft 264 kts 331°
2026-05-04 10:09 51.46224 0.01221 3486 ft 261 kts 313°
2026-05-04 10:09 51.47228 -0.01123 3071 ft 255 kts 295°
2026-05-04 10:09 51.47726 -0.03738 2991 ft 232 kts 278°
2026-05-04 10:10 51.47805 -0.06228 3004 ft 216 kts 270°
2026-05-04 10:10 51.47805 -0.08594 3004 ft 206 kts 270°
2026-05-04 10:10 51.47807 -0.10812 3003 ft 197 kts 270°
2026-05-04 10:10 51.47808 -0.13004 3008 ft 195 kts 270°
2026-05-04 10:11 51.47807 -0.15169 3036 ft 193 kts 270°
2026-05-04 10:11 51.47806 -0.17325 3006 ft 193 kts 270°
2026-05-04 10:11 51.47805 -0.19457 2953 ft 194 kts 270°
2026-05-04 10:11 51.47804 -0.21606 2761 ft 190 kts 270°
2026-05-04 10:12 51.47802 -0.23719 2544 ft 187 kts 270°
2026-05-04 10:12 51.47799 -0.25771 2294 ft 179 kts 270°
2026-05-04 10:12 51.47797 -0.27743 2066 ft 174 kts 270°
2026-05-04 10:12 51.47794 -0.29663 1837 ft 172 kts 271°
2026-05-04 10:13 51.47791 -0.31558 1619 ft 169 kts 271°
2026-05-04 10:13 51.47788 -0.33423 1377 ft 168 kts 270°
2026-05-04 10:13 51.47784 -0.35324 1143 ft 171 kts 272°
2026-05-04 10:13 51.47780 -0.37153 904 ft 156 kts 272°
2026-05-04 10:14 51.47776 -0.38859 697 ft 150 kts 272°
2026-05-04 10:14 51.47772 -0.40492 488 ft 146 kts 271°
2026-05-04 10:16 51.47659 -0.46840 90 ft 17 kts 236°
2026-05-04 10:16 51.47546 -0.46929 89 ft 17 kts 194°
2026-05-04 10:16 51.47433 -0.46889 86 ft 18 kts 167°
2026-05-04 10:16 51.47301 -0.46870 88 ft 20 kts 184°
2026-05-04 10:17 51.47155 -0.46868 87 ft 23 kts 177°
2026-05-04 10:17 51.46988 -0.46863 86 ft 25 kts 180°
2026-05-04 10:19 51.46659 -0.46104 87 ft 22 kts 89°
2026-05-04 10:19 51.46622 -0.45920 86 ft 16 kts 162°
2026-05-04 10:19 51.46522 -0.45815 87 ft 19 kts 144°
2026-05-04 10:19 51.46410 -0.45690 90 ft 21 kts 146°
2026-05-04 10:20 51.46318 -0.45590 86 ft 14 kts 146°
2026-05-04 10:20 51.46312 -0.45452 86 ft 14 kts 81°
2026-05-04 10:20 51.46316 -0.45277 86 ft 17 kts 90°
2026-05-04 10:20 51.46317 -0.45072 90 ft 20 kts 89°
2026-05-04 10:21 51.46318 -0.44842 89 ft 22 kts 90°
2026-05-04 10:21 51.46325 -0.44595 86 ft 21 kts 81°
2026-05-04 10:21 51.46327 -0.44348 86 ft 23 kts 88°
2026-05-04 10:21 51.46327 -0.44101 89 ft 16 kts 89°
2026-05-04 10:22 51.46213 -0.43985 89 ft 6 kts 225°
2026-05-04 10:22 51.46223 -0.44035 86 ft 6 kts 306°
2026-05-04 10:22 51.46240 -0.44099 86 ft 3 kts 292°
2026-05-04 10:23 51.46245 -0.44118 90 ft 2 kts 293°
2026-05-04 10:23 51.46248 -0.44128 89 ft 0 kts 292°